Weather History for Copper Harbor, MI

Change the Weather History Date:

Tuesday, August 27, 2013

  Actual Average Record
Temperature  
Mean Temperature 66 °F -  
Max Temperature 77 °F 68 °F 84 °F (1999)
Min Temperature 60 °F 53 °F 43 °F (1996)
Cooling Degree Days 2    
Growing Degree Days 16 (Base 50)    
Moisture  
Dew Point 64 °F    
Average Humidity 92    
Maximum Humidity 100    
Minimum Humidity 81    
Precipitation  
Precipitation 0.00 in - - ()
Sea Level Pressure  
Sea Level Pressure 29.86 in    
Wind  
Wind Speed 2 mph (SSW)    
Max Wind Speed 6 mph    
Max Gust Speed -    
Averages and records for this station are not official NWS values.
T = Trace of Precipitation, MM = Missing Value Source: NWS Daily Summary

Daily Weather History Graph

Daily Weather History Graph

Search for Another Location

Airport:

Trip Planner

Search our weather history database for the weather conditions in past years. The results will help you decide how hot, cold, wet, or windy it might be!

Date:

Astronomy

Aug. 27, 2013 Rise Set
Actual Time 7:03 AM EDT 8:40 PM EDT
Civil Twilight 6:31 AM EDT 9:13 PM EDT
Nautical Twilight 5:52 AM EDT 9:52 PM EDT
Astronomical Twilight 5:09 AM EDT 10:34 PM EDT
Moon No Moon Rise 2:32 PM EDT (8/27)
Length of Visible Light 14h 41m
Length of Day
13h 37m
Waning Gibbous, 57% of the Moon is Illuminated
Aug 27
Waning Gibbous
Aug 28
Last Quarter
Sep 5
New
Sep 12
First Quarter
Sep 19
Full

Hourly Weather History & Observations

Time (EDT) Temp. Dew Point Humidity Pressure Visibility Wind Dir Wind Speed Gust Speed Precip Events Conditions
12:51 AM 70.0 °F 66.0 °F 87% 29.89 in - WSW 4.6 mph - N/A   Unknown
1:51 AM 69.1 °F 66.0 °F 90% 29.87 in - Calm Calm - N/A   Unknown
2:51 AM 69.1 °F 66.0 °F 90% 29.87 in - Variable 4.6 mph - N/A   Unknown
3:51 AM 68.0 °F 66.0 °F 93% 29.86 in - Variable 4.6 mph - N/A   Unknown
4:51 AM 66.9 °F 64.9 °F 93% 29.84 in - Calm Calm - N/A   Unknown
5:51 AM 66.9 °F 64.9 °F 93% 29.85 in - Calm Calm - N/A   Unknown
6:51 AM 68.0 °F 66.0 °F 93% 29.84 in - Calm Calm - N/A   Unknown
7:51 AM 66.9 °F 66.0 °F 97% 29.86 in - Calm Calm - N/A   Unknown
8:51 AM 69.1 °F 66.9 °F 93% 29.86 in - SSW 3.5 mph - N/A   Unknown
9:51 AM 68.0 °F 64.9 °F 90% 29.85 in - Calm Calm - N/A   Unknown
10:51 AM 71.1 °F 64.9 °F 81% 29.85 in - Calm Calm - N/A   Unknown
11:51 AM 73.0 °F 68.0 °F 84% 29.86 in - Variable 3.5 mph - N/A   Unknown
12:51 PM 69.1 °F 64.9 °F 87% 29.86 in - ESE 4.6 mph - N/A   Unknown
1:51 PM 72.0 °F 66.0 °F 81% 29.84 in - Variable 3.5 mph - N/A   Unknown
2:51 PM 68.0 °F 64.9 °F 90% 29.84 in - Variable 5.8 mph - N/A   Unknown
3:51 PM 66.0 °F 63.0 °F 90% 29.84 in - ESE 5.8 mph - N/A   Unknown
4:51 PM 66.9 °F 64.0 °F 90% 29.84 in - Calm Calm - N/A   Unknown
5:51 PM 63.0 °F 62.1 °F 97% 29.87 in - Calm Calm - N/A   Unknown
6:51 PM 62.1 °F 61.0 °F 96% 29.89 in - Calm Calm - N/A   Unknown
7:51 PM 60.1 °F 60.1 °F 100% 29.90 in - Calm Calm - N/A   Unknown
8:51 PM 60.1 °F 60.1 °F 100% 29.89 in - Calm Calm - N/A   Unknown
9:51 PM 61.0 °F 61.0 °F 100% 29.89 in - Calm Calm - N/A   Unknown
10:51 PM 63.0 °F 62.1 °F 97% 29.89 in - WSW 3.5 mph - N/A   Unknown
11:51 PM 64.0 °F 62.1 °F 93% 29.88 in - WSW 5.8 mph - N/A   Unknown